Content
SEND FEEDBACK

Daily
Averages
Monthly
Summary
United States of America

LARIMORE, NORTH DAKOTA


Home > North America > United States > North Dakota
Elevation: 1124 feet     Latitude: 47 57N     Longitude: 097 40W

WEATHER
 
SELECT A DAY
Number of Records: 198,531;   Date Range: 1/1/95 - 9/21/14
 
SHARE

PRINT THIS DATA

[ ← Previous Day ]
WEATHER ALMANAC - MARCH 14, 2014
[ Next Day → ]
[ °C ]   °F
Weather ElementAverageHighLow
Temperature23.2 °F37 °F (2:53 am)10.9 °F (11:53 pm)
Dewpoint17.8 °F32 °F (2:53 am)5 °F (11:53 pm)
Humidity79.9 %93 % (6:35 am)72 % (5:53 pm)
Barometer29.80 in30.09 in (11:53 pm)29.51 in (1:53 am)
Wind Speed17.9 mph27.6 mph (8:53 am)
Wind Gust38 mph (7:23 am)
Weather ElementAverage
Visibility9.8 mi
Wind DirectionNW (318.5 °)

Weather ElementTotal
Precipitation---
Heating Degree Days41.1 (Base 65)
Averaged from 27 records on March 14, 2014
WEATHER CONDITIONS BREAKOUT
WIND DIRECTION BREAKOUT
WEATHER BY HOUR - MARCH 14, 2014
[ °C ]   °F
Local TimeTemperatureDewpointHumidityBarometerVisibilityWind DirectionWind SpeedGust SpeedPrecipitationEventsConditions
1:53 AM35.1 °F30.0 °F82 %29.51 in10.0 miWNW (290°)15.0 mphScattered Clouds
2:53 AM37.0 °F32.0 °F82 %29.52 in10.0 miNW (310°)21.9 mphOvercast
3:49 AM35.6 °F32.0 °F87 %29.52 in10.0 miWNW (300°)15.0 mphOvercast
4:53 AM36.0 °F32.0 °F86 %29.55 in10.0 miNW (310°)12.7 mph0.00 inOvercast
5:30 AM33.8 °F30.2 °F87 %29.56 in10.0 miNorth (10°)21.9 mphOvercast
5:53 AM30.2 °F26.6 °F86 %29.57 in10.0 miNorth (360°)20.7 mphOvercast
6:35 AM26.6 °F24.8 °F93 %29.61 in10.0 miNorth (360°)19.6 mph27.6 mphOvercast
6:53 AM25.0 °F21.9 °F88 %29.66 in10.0 miNorth (360°)23.0 mph29.9 mphOvercast
7:23 AM24.8 °F19.4 °F80 %29.65 in10.0 miNorth (350°)24.2 mph38.0 mphOvercast
7:53 AM21.9 °F17.1 °F82 %29.71 in10.0 miNorth (360°)25.3 mph33.4 mphOvercast
8:53 AM21.0 °F15.1 °F78 %29.75 in10.0 miNorth (350°)27.6 mph33.4 mphOvercast
9:53 AM19.0 °F12.9 °F77 %29.80 in6.0 miNNW (340°)23.0 mph31.1 mph0.00 inSnowLight Snow
10:53 AM19.9 °F12.9 °F74 %29.82 in10.0 miNorth (350°)23.0 mph31.1 mph0.00 inMostly Cloudy
11:53 AM19.9 °F12.9 °F74 %29.86 in10.0 miNorth (350°)20.7 mph29.9 mphOvercast
12:53 PM19.9 °F12.9 °F74 %29.87 in9.0 miNorth (350°)23.0 mph28.8 mph0.00 inMostly Cloudy
1:53 PM21.0 °F14.0 °F74 %29.88 in9.0 miNorth (350°)18.4 mph26.5 mph0.00 inMostly Cloudy
2:53 PM21.2 °F14.0 °F74 %29.85 in10.0 miNNW (330°)16.1 mphMostly Cloudy
3:53 PM23.0 °F16.0 °F74 %29.91 in10.0 miNNW (340°)16.1 mphMostly Cloudy
4:40 PM21.2 °F15.8 °F80 %29.89 in10.0 miNNW (340°)15.0 mphScattered Clouds
4:53 PM23.0 °F15.8 °F74 %29.89 in10.0 miNNW (340°)18.4 mphScattered Clouds
5:53 PM21.9 °F14.0 °F72 %29.96 in10.0 miNorth (350°)13.8 mphClear
6:53 PM19.9 °F14.0 °F78 %29.98 in10.0 miNorth (360°)13.8 mphPartly Cloudy
7:53 PM17.6 °F12.2 °F79 %29.96 in10.0 miNorth (10°)12.7 mphClear
8:53 PM16.0 °F10.9 °F81 %30.04 in10.0 miNorth (360°)11.5 mphClear
9:53 PM12.9 °F9.0 °F84 %30.06 in10.0 miNorth (350°)9.2 mphClear
10:53 PM12.2 °F6.8 °F79 %30.01 in10.0 miNorth (360°)11.5 mphClear
11:53 PM10.9 °F5.0 °F77 %30.09 in10.0 miNorth (360°)10.4 mphClear
Hourly data recorded from KGFK, located miles away from Larimore, North Dakota







STORIES FROM OUR PARTNERS